Theta_e
312 313 313 315 316 317 317 319 319 321 321 322 323 324 324 325 322 315 310 314 319 330 325 312 312 313 314 312 315 316 309 306 307 304 305 309 311 312 314 315 317 320 317 323 333
311 311 312 314 314 316 317 318 318 320 320 321 322 323 324 323 314 309 321 325 327 328 312 308 307 310 312 310 312 313 308 307 310 310 309 308 309 312 312 312 313 316 322 328 330
310 310 312 313 314 315 317 317 319 318 319 321 321 322 322 319 306 306 325 324 326 325 318 311 308 308 307 309 309 310 308 311 310 310 311 308 308 311 310 309 313 313 317 326 326
311 310 311 312 312 314 316 317 317 317 317 319 320 321 321 314 293 313 323 323 325 322 316 308 305 305 305 304 306 305 308 311 310 307 309 309 311 308 309 311 314 315 318 325 326
311 310 310 311 312 312 313 315 316 316 317 318 319 320 315 307 305 315 321 321 319 319 311 305 303 304 303 304 304 303 305 307 306 306 307 309 308 309 311 314 314 316 318 321 325
312 311 310 310 310 310 311 314 315 315 316 317 318 319 310 299 314 316 315 315 314 317 312 308 303 306 303 303 303 303 304 303 304 305 306 306 306 308 309 313 312 314 317 321 323
311 311 310 310 310 310 311 312 314 315 315 315 317 315 307 303 315 316 315 314 315 315 311 311 312 307 306 302 305 303 300 302 303 303 304 306 302 303 309 309 309 310 312 316 322
312 312 311 309 309 310 310 312 312 313 314 315 316 312 300 315 317 314 315 314 316 316 316 317 315 309 305 307 302 300 300 297 300 301 302 304 301 303 306 304 305 306 307 308 310
312 312 310 308 308 309 310 311 311 311 314 314 310 307 298 314 309 313 314 310 313 314 317 317 313 306 305 300 297 296 294 295 298 300 300 301 301 301 305 306 305 306 307 308 309
312 311 310 309 308 308 309 309 311 310 311 311 309 299 302 300 308 311 314 313 309 310 309 309 306 300 300 298 291 292 293 293 295 297 297 298 299 301 303 304 305 306 307 307 306
311 311 310 308 307 307 308 306 300 297 302 296 298 297 301 306 310 308 311 310 310 304 294 303 297 292 296 300 300 296 294 293 294 297 297 296 297 300 301 302 303 304 304 302 301
311 310 310 308 306 309 308 300 298 301 293 300 300 301 304 306 301 305 311 303 303 295 297 296 292 297 298 298 297 296 294 293 294 297 296 294 295 297 298 298 298 297 298 299 301
311 310 310 308 309 306 304 302 306 303 290 294 298 299 301 305 299 301 307 303 300 294 294 290 292 295 297 295 294 295 294 295 294 294 294 292 292 293 295 295 298 299 300 300 299
310 310 310 308 301 303 300 305 305 304 285 287 291 297 301 302 296 305 308 303 299 294 294 293 296 293 294 294 295 290 295 295 293 291 287 292 287 291 292 294 295 296 298 299 300
310 310 308 302 301 298 302 306 305 300 274 287 292 303 301 296 298 300 306 302 296 295 295 291 293 292 289 291 296 292 296 295 293 292 291 289 286 289 291 291 293 295 296 297 299
310 308 306 303 302 301 306 305 301 283 274 284 292 291 293 295 296 300 300 303 301 297 295 294 298 297 295 294 294 296 294 293 292 289 284 290 287 286 287 290 292 294 295 296 297
307 306 304 303 296 303 303 298 283 276 284 283 287 290 290 290 292 293 293 293 290 286 287 292 293 297 297 291 295 294 290 283 281 281 281 285 283 284 290 291 292 292 294 296 296
306 305 302 301 303 302 298 287 275 277 280 286 287 289 286 289 289 291 291 288 292 290 288 285 283 293 297 293 291 291 288 284 277 278 281 284 281 284 291 292 292 292 294 296 296
305 303 299 299 302 301 292 280 277 278 284 284 287 284 284 287 288 289 288 288 291 291 286 285 283 292 295 296 295 291 286 290 282 278 281 283 284 289 291 289 290 291 292 293 294
301 299 297 299 299 296 287 280 280 284 286 286 282 284 281 284 285 286 285 287 288 292 294 288 283 289 292 296 296 293 293 285 287 278 276 280 281 284 287 286 289 290 291 292 293
299 290 299 297 297 289 280 278 281 287 287 284 282 283 284 284 286 284 284 287 289 290 294 291 288 286 291 289 289 290 289 289 288 285 278 277 281 291 287 288 288 289 291 292 292
295 285 299 298 286 282 280 282 286 285 288 286 285 285 284 285 285 285 284 287 291 291 289 291 287 283 285 288 292 292 289 289 285 281 283 283 281 291 290 290 290 289 290 292 292
288 290 297 294 281 280 284 281 284 283 284 284 283 285 286 283 282 286 286 290 291 291 289 291 285 280 281 285 289 287 289 290 289 287 282 281 282 291 291 292 289 290 290 291 291
290 285 289 287 283 282 279 277 278 285 285 285 285 286 284 282 285 284 285 288 290 291 290 293 286 283 279 281 286 284 286 289 288 283 283 284 284 286 289 289 289 289 290 290 291
287 282 283 282 281 280 280 278 277 279 285 286 284 284 283 280 281 281 285 286 288 289 288 287 281 282 282 283 285 284 285 286 285 285 283 284 285 287 288 287 288 289 288 288 288
286 285 285 282 282 281 280 278 276 280 283 282 282 284 284 280 282 280 283 284 282 287 286 285 279 278 275 279 279 281 284 284 285 285 284 284 283 288 288 288 287 288 288 287 288
288 288 288 282 282 281 281 280 281 283 285 285 285 284 283 284 285 285 286 285 284 284 284 283 279 277 276 273 274 276 277 281 283 284 285 280 283 285 284 285 286 287 288 288 288
Wind_Speed
8 9 10 9 11 12 11 10 8 9 8 8 9 8 8 7 10 3 5 4 4 7 7 11 4 6 3 0 1 2 4 5 3 5 3 5 5 2 1 3 2 1 2 4 11
7 9 10 8 9 12 14 10 7 8 7 8 8 8 8 6 4 9 3 3 5 5 3 7 4 5 1 1 2 4 4 3 1 1 3 6 4 6 4 4 4 4 4 6 10
7 8 9 8 8 11 13 10 6 6 7 8 7 8 8 6 5 3 2 4 6 3 1 2 4 2 2 1 4 3 7 4 3 2 1 5 4 3 3 4 3 3 5 9 9
8 8 7 6 6 10 12 10 6 6 6 8 8 5 6 3 6 2 4 3 3 1 3 3 4 4 3 5 0 6 3 3 5 3 3 4 3 4 4 4 5 2 1 9 12
7 6 7 7 8 8 10 10 7 7 5 7 6 5 3 4 7 0 3 4 2 2 4 5 6 5 6 3 2 4 1 2 1 1 2 3 1 2 4 2 2 1 2 4 8
6 6 6 7 8 9 8 9 7 6 3 6 6 6 5 12 0 2 2 0 2 1 3 6 3 2 4 3 3 2 2 1 0 2 1 3 2 2 2 2 2 1 1 1 5
7 6 8 8 8 9 7 7 8 6 4 4 6 4 8 11 1 3 3 1 1 1 2 2 3 4 7 5 2 2 3 2 4 2 2 3 5 6 1 5 5 4 2 3 3
8 7 8 7 7 9 6 7 7 9 8 6 4 5 6 3 5 7 3 2 2 2 1 0 1 1 2 7 3 4 2 7 4 4 1 5 12 4 5 3 3 5 4 4 3
8 8 8 7 6 6 6 7 4 9 13 4 3 4 5 3 4 5 4 2 2 2 0 0 1 3 3 9 5 3 5 9 5 1 1 5 6 3 6 6 4 4 4 5 6
8 9 9 7 6 6 4 2 4 8 8 1 1 4 5 4 2 2 3 3 2 5 4 4 4 7 6 13 13 8 10 3 5 3 2 4 9 3 6 7 6 7 7 9 10
9 10 10 6 4 3 1 3 3 4 5 3 1 3 1 1 0 2 3 6 3 3 6 4 9 15 16 15 8 7 6 6 3 2 1 4 8 5 5 6 8 10 9 9 9
10 10 10 6 2 3 2 3 1 3 1 7 2 6 5 4 3 4 3 10 7 8 6 5 13 7 5 8 13 11 11 7 3 4 1 1 6 5 5 6 9 10 10 11 10
9 10 9 6 6 3 3 4 5 3 2 4 2 5 5 6 4 11 9 8 9 8 11 8 2 7 8 9 13 12 16 14 6 4 4 2 4 2 7 12 11 12 9 12 12
9 10 10 8 2 0 4 6 4 3 3 2 7 6 5 3 4 1 4 8 5 9 9 5 2 7 7 10 11 12 3 10 13 7 6 3 2 3 6 12 14 13 14 14 14
11 12 9 1 5 2 4 2 5 1 4 2 5 2 1 6 4 2 1 2 11 8 6 5 6 6 5 5 8 3 8 8 4 7 6 5 3 4 5 9 10 11 12 13 13
14 14 9 4 4 3 4 3 1 2 5 1 2 4 6 2 2 3 4 2 1 7 4 3 1 2 2 4 2 13 10 9 6 2 7 11 8 2 2 5 8 9 11 12 12
16 15 8 2 2 3 0 2 2 3 2 2 2 2 8 6 4 3 10 9 7 8 10 6 3 2 3 8 4 2 12 3 3 4 7 3 4 6 6 7 6 7 10 11 11
20 16 9 5 2 1 1 1 0 2 3 3 2 4 6 3 0 2 11 7 1 1 9 10 7 5 4 2 8 8 9 5 8 6 4 1 6 6 5 4 3 5 7 10 12
13 4 3 6 5 1 1 2 0 2 5 4 4 6 4 4 1 3 2 4 3 1 6 6 4 2 4 1 4 6 4 2 7 2 3 8 5 3 1 2 3 8 10 11 11
3 3 4 9 4 2 3 2 2 2 5 4 4 2 6 5 5 2 2 2 2 2 4 2 7 3 2 1 6 1 5 3 0 7 4 5 7 8 10 6 7 10 10 10 10
3 4 3 8 2 5 3 3 3 4 4 3 3 3 4 6 6 3 2 4 4 5 2 3 2 3 3 3 3 4 5 4 3 1 3 5 5 10 10 7 9 7 6 8 9
3 3 5 4 4 2 2 3 4 4 6 5 3 8 4 3 4 4 4 4 7 3 3 3 5 5 4 2 2 2 3 3 4 5 1 1 5 12 9 5 4 3 6 6 7
3 0 2 3 3 3 1 3 3 9 6 6 3 4 4 5 4 5 4 3 6 4 2 1 2 6 4 1 3 1 3 4 5 2 3 3 5 7 0 6 4 5 7 9 9
2 2 3 5 2 4 4 4 4 3 2 3 4 3 2 6 6 5 3 5 4 6 9 2 4 2 5 4 2 5 5 6 5 3 6 1 10 6 6 9 6 8 9 9 8
3 2 1 2 4 4 2 2 4 7 7 8 5 9 2 5 5 6 5 3 7 8 4 4 5 5 7 5 3 3 6 5 4 5 5 7 7 10 4 2 5 5 6 6 8
3 4 3 3 2 1 3 2 3 2 5 5 7 12 13 7 5 3 2 5 3 6 4 3 4 3 3 5 6 3 3 4 3 2 2 3 3 3 5 4 5 6 4 3 7
1 2 2 2 1 1 2 3 2 1 5 5 3 8 12 7 7 6 10 8 6 3 4 3 5 1 3 4 2 2 4 6 3 3 3 4 3 2 3 3 5 7 5 3 9
Wind_Direction
317 320 324 325 329 327 313 286 290 290 303 307 315 323 331 344 310 332 303 5 342 343 351 306 287 349 279 111 320 270 234 215 198 176 132 146 193 148 88 145 167 138 12 58 137
318 316 314 307 330 331 314 275 278 287 289 308 309 313 320 340 310 294 340 308 333 339 1 324 340 350 244 250 187 238 240 192 69 135 162 171 197 157 197 167 189 187 128 110 152
314 322 311 301 327 334 328 289 258 273 289 292 295 305 311 321 292 240 21 25 321 260 159 264 269 297 164 278 183 181 235 164 160 92 102 153 166 158 194 196 237 228 168 148 172
312 324 327 309 326 342 347 310 270 263 265 276 283 292 290 303 238 88 345 354 339 186 173 183 218 178 184 201 154 228 221 201 145 127 133 150 118 174 233 59 69 33 111 167 184
281 285 296 301 292 318 342 340 312 284 267 259 268 268 245 216 245 119 339 334 134 194 191 188 204 155 208 179 174 243 178 190 53 151 128 127 118 328 242 228 251 20 183 210 204
254 263 272 272 288 298 319 337 332 301 255 248 242 245 225 241 264 300 315 252 25 246 179 185 221 205 149 173 203 49 224 122 125 208 219 196 143 278 83 35 114 278 316 272 238
261 256 263 273 281 300 291 331 342 341 251 248 240 217 238 233 97 323 316 220 150 336 231 239 112 251 157 143 109 111 204 201 208 187 167 207 216 221 297 305 301 304 326 333 279
245 236 241 266 278 278 288 323 333 1 317 273 219 192 242 216 267 268 277 157 147 240 251 60 202 169 240 125 107 160 221 222 132 178 86 227 240 128 356 341 322 322 327 329 319
253 227 235 255 277 315 285 296 313 4 306 269 203 210 232 128 209 249 209 196 136 134 264 207 204 137 210 165 160 177 202 212 189 135 130 226 245 107 43 37 20 359 321 307 329
242 229 229 243 269 315 312 261 154 17 301 200 33 187 234 201 179 204 192 221 104 129 136 179 180 188 218 191 206 174 199 186 205 75 193 187 239 164 349 348 330 309 311 344 353
218 219 211 225 249 317 137 78 172 173 250 154 105 273 359 302 177 196 190 173 137 142 169 179 202 202 202 207 210 162 140 156 111 68 234 220 257 281 341 316 320 345 349 359 11
202 206 186 191 210 117 181 120 54 16 168 212 234 290 263 292 154 196 194 189 181 179 145 169 223 204 200 198 185 198 197 190 115 63 262 56 279 335 347 29 31 19 21 20 24
188 181 164 156 123 75 61 67 159 254 81 287 170 287 225 217 202 182 189 186 180 163 185 205 99 169 165 165 189 198 216 218 215 113 88 281 234 75 85 50 47 42 42 38 32
168 158 139 150 104 81 85 129 124 356 6 277 185 252 194 213 208 308 207 197 170 174 163 219 71 174 168 178 199 204 191 163 152 166 234 326 232 122 72 60 51 42 42 40 35
138 130 108 9 124 63 132 143 84 260 215 57 178 10 189 206 136 111 359 218 183 140 168 142 170 148 177 178 183 163 163 151 165 198 187 203 256 115 139 62 57 47 43 36 35
123 114 111 59 58 340 192 165 154 146 216 205 256 207 175 163 109 86 203 47 76 134 80 110 47 173 112 91 128 134 113 84 78 99 231 219 211 129 91 111 86 65 49 37 31
101 82 63 76 75 337 31 341 157 250 13 171 190 168 186 147 114 210 184 173 166 158 171 151 118 117 132 105 106 160 150 126 148 211 256 123 168 62 109 91 66 49 47 42 39
102 94 81 58 335 209 112 345 148 295 281 317 292 180 180 137 351 136 175 155 107 173 147 167 170 178 154 169 176 178 199 181 189 194 157 137 185 120 88 12 28 58 58 49 40
111 85 63 352 359 164 200 61 26 268 321 293 183 168 140 115 324 138 103 154 109 23 166 151 107 23 46 28 177 168 182 87 104 90 179 141 81 103 184 68 87 69 58 45 33
87 83 46 335 351 78 70 82 315 278 314 264 48 32 154 141 148 79 100 25 5 351 284 132 117 22 82 41 47 186 129 136 33 157 183 162 170 156 177 110 98 66 51 44 33
68 68 345 349 37 54 68 1 310 302 303 349 6 150 104 131 124 57 38 113 358 333 304 113 89 102 188 28 149 142 177 75 83 3 159 150 119 133 125 98 87 72 50 35 28
65 70 355 334 59 50 73 5 322 317 346 18 22 37 48 87 87 110 110 8 349 295 69 23 89 103 74 354 340 66 94 97 210 167 49 13 109 135 105 109 114 87 42 27 22
79 353 27 318 102 94 66 5 323 16 9 20 67 33 1 52 120 103 99 295 16 38 65 136 35 117 112 54 3 106 120 107 86 35 170 180 124 163 225 20 122 41 17 19 13
108 84 19 53 26 107 132 4 336 359 59 21 26 68 55 61 42 111 105 34 26 53 34 54 71 52 166 88 108 158 155 168 148 158 150 157 126 186 328 311 0 12 12 12 23
21 81 11 47 56 94 92 69 6 7 1 16 46 34 37 59 46 47 56 78 48 6 39 60 95 83 75 50 69 97 143 155 164 150 197 138 136 176 252 43 1 340 9 22 16
123 142 99 86 139 119 33 59 98 29 10 13 74 51 58 70 36 99 39 36 31 358 46 30 103 97 69 33 27 99 112 126 158 180 160 166 247 135 65 24 4 347 336 333 353
133 99 97 49 7 12 39 163 118 208 57 44 78 81 63 45 61 66 69 71 62 30 46 53 132 88 115 360 345 264 215 198 159 197 152 186 123 79 82 62 328 304 305 289 336